TimeEET,TemperatureF,Dew PointF,Humidity,Sea Level PressureIn,VisibilityMPH,Wind Direction,Wind SpeedMPH,Gust SpeedMPH,PrecipitationIn,Events,Conditions,WindDirDegrees,DateUTC
12:20 AM,41.0,35.6,81,29.98,3.7,NNW,3.5,-,N/A,,Unknown,340,2013-03-23 22:20:00
12:50 AM,39.2,33.8,81,30.01,3.7,NNW,5.8,-,N/A,,Unknown,340,2013-03-23 22:50:00
1:20 AM,41.0,33.8,76,30.01,3.7,North,4.6,-,N/A,,Unknown,350,2013-03-23 23:20:00
1:50 AM,39.2,32.0,75,30.01,3.7,Calm,Calm,-,N/A,,Unknown,0,2013-03-23 23:50:00
2:00 AM,40,33,69,30.02,4,Calm,Calm,,,,Mist,,2013-03-24 00:00:00
2:20 AM,42.8,37.4,81,30.01,2.5,SSE,3.5,-,N/A,,Mist,150,2013-03-24 00:20:00
2:50 AM,41.0,35.6,81,30.01,2.5,Calm,Calm,-,N/A,,Mist,0,2013-03-24 00:50:00
3:20 AM,39.2,33.8,81,30.01,3.7,Calm,Calm,-,N/A,,Unknown,0,2013-03-24 01:20:00
3:50 AM,39.2,33.8,81,30.01,2.5,North,2.3,-,N/A,,Mist,360,2013-03-24 01:50:00
4:20 AM,39.2,33.8,81,30.01,2.5,North,5.8,-,N/A,,Mist,350,2013-03-24 02:20:00
4:50 AM,39.2,33.8,81,30.01,2.5,North,9.2,-,N/A,,Mist,350,2013-03-24 02:50:00
5:20 AM,39.2,35.6,87,30.01,2.5,North,6.9,-,N/A,,Mist,350,2013-03-24 03:20:00
5:50 AM,39.2,35.6,87,30.04,2.5,North,4.6,-,N/A,,Mist,350,2013-03-24 03:50:00
6:20 AM,39.2,37.4,93,30.04,1.9,NE,3.5,-,N/A,,Mist,50,2013-03-24 04:20:00
6:50 AM,39.2,35.6,87,30.04,1.6,NNW,6.9,-,N/A,,Mist,340,2013-03-24 04:50:00
7:20 AM,42.8,37.4,81,30.06,2.5,NNW,6.9,-,N/A,,Mist,340,2013-03-24 05:20:00
7:50 AM,44.6,39.2,81,30.06,2.5,North,4.6,-,N/A,,Mist,350,2013-03-24 05:50:00
8:00 AM,45,39,71,30.07,2,North,4.6,,,,Mist,350,2013-03-24 06:00:00
8:20 AM,48.2,39.2,71,30.06,2.8,Variable,3.5,-,N/A,,Mist,0,2013-03-24 06:20:00
8:50 AM,50.0,41.0,71,30.06,3.7,Variable,2.3,-,N/A,,Unknown,0,2013-03-24 06:50:00
9:20 AM,50.0,39.2,66,30.09,3.7,SSW,3.5,-,N/A,,Unknown,210,2013-03-24 07:20:00
9:50 AM,50.0,39.2,66,30.09,3.7,SW,3.5,-,N/A,,Unknown,230,2013-03-24 07:50:00
10:20 AM,51.8,41.0,67,30.09,-9999.0,SSW,3.5,-,N/A,,Clear,200,2013-03-24 08:20:00
10:50 AM,51.8,41.0,67,30.09,-9999.0,SSW,5.8,-,N/A,,Clear,200,2013-03-24 08:50:00
11:20 AM,51.8,41.0,67,30.09,-9999.0,South,6.9,-,N/A,,Clear,170,2013-03-24 09:20:00
11:50 AM,53.6,41.0,62,30.09,-9999.0,SSW,5.8,-,N/A,,Clear,200,2013-03-24 09:50:00
12:20 PM,51.8,39.2,62,30.06,-9999.0,WSW,4.6,-,N/A,,Clear,240,2013-03-24 10:20:00
12:50 PM,53.6,37.4,54,30.06,-9999.0,SW,3.5,-,N/A,,Clear,230,2013-03-24 10:50:00
1:20 PM,53.6,35.6,51,30.06,-9999.0,SSW,3.5,-,N/A,,Clear,200,2013-03-24 11:20:00
1:50 PM,55.4,32.0,41,30.06,-9999.0,Variable,2.3,-,N/A,,Clear,0,2013-03-24 11:50:00
2:00 PM,56,33,30,30.08,12,WSW,2.3,,,,Partly Cloudy,250,2013-03-24 12:00:00
2:20 PM,57.2,33.8,41,30.06,-9999.0,Variable,2.3,-,N/A,,Clear,0,2013-03-24 12:20:00
2:50 PM,57.2,33.8,41,30.04,-9999.0,South,3.5,-,N/A,,Clear,190,2013-03-24 12:50:00
3:20 PM,59.0,35.6,42,30.04,-9999.0,Variable,2.3,-,N/A,,Clear,0,2013-03-24 13:20:00
3:50 PM,59.0,33.8,39,30.04,-9999.0,Variable,2.3,-,N/A,,Clear,0,2013-03-24 13:50:00
4:20 PM,60.8,35.6,39,30.04,-9999.0,Variable,2.3,-,N/A,,Clear,0,2013-03-24 14:20:00
4:50 PM,55.4,35.6,47,30.04,-9999.0,SE,5.8,-,N/A,,Clear,130,2013-03-24 14:50:00
5:20 PM,53.6,37.4,54,30.01,-9999.0,ESE,5.8,-,N/A,,Clear,120,2013-03-24 15:20:00
5:50 PM,55.4,35.6,47,30.01,-9999.0,SE,5.8,-,N/A,,Clear,130,2013-03-24 15:50:00
6:20 PM,53.6,35.6,51,30.01,-9999.0,East,4.6,-,N/A,,Clear,90,2013-03-24 16:20:00
6:50 PM,55.4,33.8,44,30.01,-9999.0,ENE,4.6,-,N/A,,Clear,70,2013-03-24 16:50:00
7:20 PM,57.2,33.8,41,30.04,-9999.0,Variable,5.8,-,N/A,,Clear,0,2013-03-24 17:20:00
7:50 PM,57.2,37.4,48,30.04,-9999.0,NNE,4.6,-,N/A,,Clear,30,2013-03-24 17:50:00
8:00 PM,56,36,35,30.04,6,NNE,4.6,,,,Clear,30,2013-03-24 18:00:00
8:20 PM,55.4,37.4,51,30.04,-9999.0,NE,4.6,-,N/A,,Clear,40,2013-03-24 18:20:00
8:50 PM,55.4,37.4,51,30.04,-9999.0,East,6.9,-,N/A,,Clear,80,2013-03-24 18:50:00
9:20 PM,55.4,37.4,51,30.04,-9999.0,East,5.8,-,N/A,,Clear,80,2013-03-24 19:20:00
9:50 PM,55.4,37.4,51,30.04,-9999.0,ENE,5.8,-,N/A,,Clear,60,2013-03-24 19:50:00
10:20 PM,53.6,37.4,54,30.04,-9999.0,NNE,3.5,-,N/A,,Clear,30,2013-03-24 20:20:00
10:50 PM,53.6,37.4,54,30.04,-9999.0,NNE,3.5,-,N/A,,Clear,30,2013-03-24 20:50:00
11:20 PM,50.0,37.4,62,30.04,-9999.0,North,6.9,-,N/A,,Clear,350,2013-03-24 21:20:00
11:50 PM,48.2,39.2,71,30.04,-9999.0,North,10.4,-,N/A,,Clear,350,2013-03-24 21:50:00